Regional Weather Roundup
Issued by NWS Raleigh/Durham, NC

Home | Current Version | Previous Version | Text Only | Print | Product List | Glossary On
Versions: 1 2 3 4 5 6 7 8 9 10 11 12 13 14 15 16 17 18 19 20 21 22 23 24 25 26 27
000
ASUS42 KRAH 211810
RWRRAH
NORTH CAROLINA WEATHER ROUNDUP
NATIONAL WEATHER SERVICE RALEIGH NC
200 PM EDT MON AUG 21 2017

NOTE: "FAIR" INDICATES FEW OR NO CLOUDS BELOW 12,000 FEET WITH NO
SIGNIFICANT WEATHER AND/OR OBSTRUCTIONS TO VISIBILITY.

NCZ001-053-055-056-065-067-211900-
WESTERN NORTH CAROLINA

CITY           SKY/WX    TMP DP  RH WIND       PRES   REMARKS
ASHEVILLE      MOSUNNY   85  65  51 SE7       30.27F
JEFFERSON      PTSUNNY   78  64  60 CALM      30.33F
MORGANTON      MOSUNNY   88  70  54 CALM      30.25S
HICKORY        MOSUNNY   88  69  53 S5        30.21F
RUTHERFORDTON  MOSUNNY   89  69  52 S8        30.23F
MOUNT AIRY     SUNNY     90  68  48 SE5       30.24F
BOONE          MOSUNNY   82  60  48 CALM      30.34S
$$

NCZ021-022-025-041-071-084-088-211900-
CENTRAL NORTH CAROLINA

CITY           SKY/WX    TMP DP  RH WIND       PRES   REMARKS
CHARLOTTE      PTSUNNY   91  68  46 VRB6      30.20F HX  95
GREENSBORO     TSTM      79  72  79 NE17G24   30.21S
WINSTON-SALEM  PTSUNNY   89  67  47 CALM      30.21F
RALEIGH-DURHAM MOSUNNY   91  69  48 VRB3      30.20F HX  96
FORT BRAGG     SUNNY     90  70  51 NE6       30.18F HX  95
FAYETTEVILLE   SUNNY     90  71  53 E3        30.18F HX  96
BURLINGTON     SUNNY     93  68  43 VRB7      30.19F HX  97
LAURINBURG     SUNNY     91  72  53 E7        30.19F HX  98
$$

NCZ011-015-027-028-043-044-047-080-103-211900-
NORTHEASTERN NORTH CAROLINA

CITY           SKY/WX    TMP DP  RH WIND       PRES   REMARKS
ROCKY MT-WILSO SUNNY     88  70  55 VRB3      30.20F
GREENVILLE     SUNNY     90  72  55 SE6       30.21F HX  96
WASHINGTON     CLOUDY    88  74  62 SE7       30.20F HX  96
ELIZABETH CITY SUNNY     87  74  64 E9        30.21F HX  95
MANTEO         MOSUNNY   85  74  69 E7        30.22F
CAPE HATTERAS  MOSUNNY   89  79  72 SE6       30.21F HX 104
$$

NCZ078-087-090-091-093-098-101-211900-
SOUTHEASTERN NORTH CAROLINA

CITY           SKY/WX    TMP DP  RH WIND       PRES   REMARKS
LUMBERTON      MOSUNNY   90  72  55 E6        30.18F HX  97
GOLDSBORO      MOSUNNY   90  74  58 E7        30.19F HX  98
KINSTON        MOSUNNY   90  70  51 E9        30.20F HX  95
KENANSVILLE    CLOUDY    88  72  58 E5        30.20F
NEW BERN       CLOUDY    87  76  69 E9        30.20F HX  97
CHERRY POINT   MOSUNNY   89  75  63 E12       30.20F HX  99
BEAUFORT       CLOUDY    82  77  84 S6        30.20F
JACKSONVILLE   CLOUDY    87  77  72 SE7       30.18F HX  99
WILMINGTON     CLOUDY    84  74  71 SE8       30.19F
$$





USA.gov is the U.S. government's official web portal to all federal, state and local government web resources and services.